This is the latest recevied weather packets stored in our database for station/object SV1JCZ-13. If no packets are shown the sender has not sent any weather packets the latest 10 day(s).
| Time | Temp. | Humidity | Pressure | Rain* | Wind** | Luminosity | Snow |
|---|---|---|---|---|---|---|---|
| 1777807628 | 7.22° C | 83% | 0 hPa | 0 mm | - | - | - |
| 1777807268 | 7.22° C | 85% | 0 hPa | 0.51 mm | - | - | - |
| 1777805828 | 5° C | 87% | 0 hPa | 0.76 mm | - | - | - |
| 1777805468 | 5° C | 88% | 0 hPa | 0.76 mm | - | - | - |
| 1777804028 | 6.11° C | 82% | 0 hPa | 1.02 mm | - | - | - |
| 1777803668 | 6.67° C | 81% | 0 hPa | 0.76 mm | - | - | - |
| 1777802948 | 7.22° C | 85% | 0 hPa | 1.02 mm | - | - | - |
| 1777802588 | 7.22° C | 84% | 0 hPa | 1.02 mm | - | - | - |
| 1777802228 | 7.22° C | 84% | 0 hPa | 1.02 mm | - | - | - |
| 1777801868 | 7.22° C | 83% | 0 hPa | 1.02 mm | - | - | - |
| 1777801148 | 7.22° C | 82% | 0 hPa | 1.02 mm | - | - | - |
| 1777801029 | 7.22° C | 82% | 0 hPa | 1.02 mm | - | - | - |
| 1777800788 | 7.22° C | 83% | 0 hPa | 1.02 mm | - | - | - |
| 1777800428 | 6.67° C | 83% | 0 hPa | 0.76 mm | - | - | - |
| 1777800068 | 7.22° C | 82% | 0 hPa | 0.51 mm | - | - | - |
| 1777799829 | 7.22° C | 82% | 0 hPa | 0 mm | - | - | - |
| 1777799708 | 7.22° C | 82% | 0 hPa | 0 mm | - | - | - |
| 1777799348 | 7.22° C | 81% | 0 hPa | 0 mm | - | - | - |
| 1777798988 | 7.22° C | 84% | 0 hPa | 0 mm | - | - | - |
| 1777798628 | 7.22° C | 86% | 0 hPa | 0 mm | - | - | - |
| 1777798268 | 7.22° C | 86% | 0 hPa | 0 mm | - | - | - |
| 1777797908 | 7.22° C | 85% | 0 hPa | 0 mm | - | - | - |
| 1777797548 | 7.22° C | 86% | 0 hPa | 0.25 mm | - | - | - |
| 1777797188 | 7.22° C | 86% | 0 hPa | 0.25 mm | - | - | - |
| 1777796828 | 7.22° C | 86% | 0 hPa | 0.25 mm | - | - | - |
* Rain latest hour (hover to see other rain measurements)
** Current wind speed in m/s (hover to see current wind gust speed)